Location: Unspecified
(0.0000°N, 0.0000°E)
Time: 00:32:10
(UTC+00:00)

STRAND 1 - Visible Passes

Search period start: 05 October 2023 00:00
Search period end: 15 October 2023 00:00
Orbit: 767 x 778 km, 98.4° (Epoch: 04 October)

Date Brightness Start Highest point End Pass type
(mag) Time Alt. Az. Time Alt. Az. Time Alt. Az.
05 Oct ? 18:42:25 10° N 18:47:12 41° WNW 18:51:59 10° SSW visible
06 Oct ? 18:07:35 10° NNE 18:12:42 75° ESE 18:17:49 10° S visible
07 Oct ? 05:05:05 10° E 05:06:04 10° ENE 05:07:03 10° ENE visible
07 Oct ? 19:13:45 10° NW 19:17:05 18° WNW 19:20:25 10° WSW visible
08 Oct ? 18:37:42 10° N 18:42:36 46° WNW 18:47:29 10° SSW visible
09 Oct ? 18:03:01 10° NNE 18:08:05 65° ESE 18:13:10 10° S visible
10 Oct ? 19:08:49 10° NNW 19:12:28 20° WNW 19:16:07 10° WSW visible
11 Oct ? 18:33:00 10° N 18:37:58 53° WNW 18:42:57 10° SSW visible
13 Oct ? 19:03:55 10° NNW 19:07:50 23° WNW 19:11:46 10° SW visible
14 Oct ? 18:28:18 10° N 18:33:20 60° WNW 18:38:22 10° SSW visible
